ATLAS 5 CENTAUR DEB, 44655

Orbit data source: Space-Track

ATLAS 5 CENTAUR DEB, 44655 is space debris in HEO originally from a launch on Wed, 17 Oct 2018 UTC launched from the Air Force Eastern Test Range (AFETR). Debris objects in space refer to the collection of defunct objects orbiting the Earth. Examples of debris include non-operational satellites, rocket bodies, and fragments generated from explosions, collisions, or faulty payload assembly.

Loading next visibility...
Identifier
44655, 2018-079R
Orbit
HEO
Country
Flag of USUS
Related business
Flag of USUnited Launch Alliance/Lockheed Martin (US)
Manufacturer
ULA Decatur
Mission
Spacecraft
Bus & Motor
Unknown
Mass
Unknown
Launch date (UTC)
2018-10-17 (7 years ago)
Launch vehicle
Unknown
Launch site
Air Force Eastern Test Range (AFETR)
Object type
Payload
Rocket body
Debris
Shape & HBR
Unknown shape, 1.1 m
Radar Cross Section
RCS unknown

Expand to show TLE details & history
Last TLE update: 5 days ago

TLE from 5 days ago
0 ATLAS 5 CENTAUR DEB
1 44655U 18079R   25292.98560700 -.00000106  00000-0  00000-0 0  9992
2 44655  13.6241  41.1555 4720498 297.9503  22.5238  1.83809602 47070
Epoch: 2025-10-19T23:39Z
TLE epoch observation values (Epoch: 2025-10-19T23:39:16.444Z)
Latitude
-0.00003°
Longitude
17.60863°
Altitude
11,517.051 km
Speed
5.513 km/s
True Right ascension
02h 44m 29s
True Declination
0° 00' 00"
Sunlit
Object was in full shadow at epoch
Visualization orbit readout
Latitude
Unknown
Longitude
Unknown
Altitude
Unknown
Speed
Unknown
Apparent Right ascension
Unknown
Apparent Declination
Unknown
Sunlit
N/A
Visualization observer readout
Local Sidereal Time
08:27:32
Azimuth
Unknown
Elevation
Unknown
Doppler factor
Unknown
Orbital elements
Apogee altitude
35,064.251 km
Perigee altitude
8,485.163 km
Semi-major axis
28,152.844 km
Eccentricity
0.47205
Inclination
13.6241°
RAAN
41.1555°
Arg. of periapsis
297.9503°
True anomaly
62.38172°
Mean anomaly
22.5238°
Eccentric anomaly
39.85726°
Mean motion
0.45947 °/min
Orbital period
783.51 mins
BSTAR
0
Loading maneuver chart data...
Computing Atmospheric mass density...

Documentation

Showing up to 5 results
|